SCP
0 0 0 0 0 0 1 2 1 2 2 2 2 2 2 1 1 0 1 0 0 0 1 0 1 1 1 1 0 0 0 0
-0 0 0 0 0 0 0 1 3 3 3 3 3 2 2 1 1 1 1 1 0 0 1 1 1 1 1 1 1 0 1 1
0 0 0 0 0 0 0 0 3 3 4 4 4 3 2 1 2 1 1 1 1 1 1 1 1 1 1 1 1 1 1 1
0 0 0 0 0 0 0 0 0 3 4 4 3 2 2 2 1 1 2 2 2 1 1 1 2 2 1 2 1 1 1 1
-0 -0 0 0 0 1 1 1 1 0 3 4 3 2 2 2 2 2 3 3 2 1 1 1 2 2 2 2 2 1 1 0
0 0 0 0 1 1 1 1 0 0 2 4 3 3 3 3 3 3 3 2 1 1 1 1 1 1 1 1 1 1 1 0
0 0 1 1 1 1 1 0 0 0 3 4 3 2 2 2 1 1 1 1 1 1 1 1 1 1 1 1 1 2 1 0
0 1 1 1 1 0 0 1 1 3 4 3 2 1 0 0 0 0 0 0 0 0 0 0 0 0 0 0 0 0 0 0
0 0 0 1 1 0 0 0 1 1 2 1 1 1 1 0 0 0 0 0 0 0 0 0 0 0 0 0 0 0 0 0
0 0 0 1 0 0 0 0 0 0 0 0 0 0 0 0 0 0 0 0 0 0 0 0 0 0 0 0 0 0 0 0
0 0 1 1 0 0 0 0 0 0 0 0 0 0 0 0 0 0 0 0 0 0 0 0 0 0 0 0 0 0 0 0
0 0 1 1 0 0 0 0 0 0 0 0 0 0 0 0 0 0 0 0 0 0 0 0 0 0 0 0 0 0 0 0
0 0 1 0 0 0 0 0 0 0 0 0 0 0 0 0 0 0 0 0 0 0 0 0 0 0 0 0 0 0 0 0
0 0 0 0 0 0 0 0 0 0 0 0 0 0 0 0 0 0 0 0 0 0 0 0 0 0 0 0 0 0 0 0
0 0 0 0 0 0 0 0 0 0 0 0 0 0 0 0 0 0 0 0 0 0 0 0 0 0 0 0 0 0 0 0
0 0 0 0 0 0 0 0 0 0 0 0 0 0 0 0 0 0 0 0 0 0 0 0 0 0 0 0 0 0 0 0
0 0 0 0 0 0 0 0 0 0 0 0 0 0 0 0 0 0 0 0 0 0 0 0 0 0 0 0 0 0 0 0
0 0 0 0 0 0 0 0 0 0 0 0 0 0 0 0 0 0 0 0 0 0 0 0 0 0 0 0 0 0 0 0
0 0 0 0 0 0 0 0 0 0 0 0 0 0 0 0 0 0 0 0 0 0 0 0 0 0 0 0 0 0 0 0
Wind_Speed_500mb
42 42 38 36 39 40 42 53 59 56 62 66 63 72 71 69 66 67 62 68 64 70 66 58 50 51 51 43 43 44 47 37
49 40 40 43 43 37 38 30 58 69 72 72 73 78 77 68 71 67 71 69 63 59 72 65 49 59 63 51 45 46 44 40
55 53 53 52 46 40 45 45 36 69 76 73 72 73 69 69 67 70 66 70 69 58 73 73 65 61 57 50 51 46 52 52
55 56 52 47 41 37 39 38 41 53 68 66 62 57 57 63 69 64 66 71 71 61 58 76 70 68 64 57 56 54 53 54
61 51 45 46 31 32 44 44 47 53 61 65 68 69 69 69 63 61 67 71 72 64 56 61 70 64 60 56 52 52 56 55
45 39 30 29 29 42 45 35 38 50 57 68 61 68 68 61 67 68 74 80 71 59 57 54 59 60 56 55 57 51 51 50
35 37 41 30 40 39 28 23 22 27 50 58 64 74 70 71 64 74 73 71 70 61 53 52 54 53 52 50 48 49 48 49
30 32 28 22 33 24 24 26 28 39 49 56 68 62 63 55 76 80 78 75 68 64 56 56 56 54 50 46 46 52 49 47
25 23 21 29 35 26 25 32 46 52 58 64 61 52 54 62 64 61 68 71 67 59 55 51 52 50 46 43 42 42 42 42
22 19 26 36 37 27 27 32 35 43 50 48 46 61 56 56 57 53 55 55 59 58 54 52 49 41 32 30 29 31 30 31
29 28 35 34 33 23 28 31 33 35 38 42 46 53 54 48 48 47 49 50 48 49 47 42 36 30 28 27 28 25 25 27
33 29 36 35 32 24 27 34 37 43 46 49 52 51 48 45 46 47 47 45 43 40 39 36 31 27 21 14 14 17 18 22
32 33 41 36 30 26 31 37 43 48 50 50 51 52 51 50 45 44 43 41 40 39 35 30 23 17 12 11 13 17 20 22
30 35 43 31 31 34 31 41 46 47 48 49 46 42 41 44 45 44 44 41 38 35 30 24 19 13 7 8 13 21 27 35
31 30 44 44 37 38 33 43 45 48 45 47 46 45 45 46 46 45 43 40 37 33 28 21 16 14 13 16 23 29 37 41
39 33 37 49 47 43 37 37 44 45 45 43 47 47 46 45 46 47 45 38 30 24 18 14 11 9 13 22 31 40 43 48
45 41 36 47 53 54 47 51 51 51 49 52 54 51 53 51 46 39 34 28 22 17 8 12 22 26 30 34 39 44 48 45
40 43 50 46 55 57 59 65 54 48 49 49 49 50 44 38 33 30 29 23 15 16 23 23 22 24 23 24 37 40 40 42
49 51 53 60 64 62 63 61 55 53 55 52 44 43 43 42 37 29 18 17 18 16 15 16 20 25 31 35 38 43 47 48
Wind_Direction_500mb
242 232 228 229 230 225 221 230 231 232 230 228 220 208 213 219 212 218 212 226 227 212 217 215 224 225 222 231 236 216 227 234
254 240 227 237 239 203 204 219 229 220 222 223 218 213 214 214 211 214 211 223 227 221 218 212 220 221 221 233 239 219 230 225
246 244 242 230 222 225 233 225 221 221 224 228 221 219 219 214 209 212 211 218 226 224 219 214 216 220 224 227 229 225 228 229
244 244 234 224 225 240 240 224 229 226 217 222 216 217 224 216 218 216 208 214 226 224 225 217 217 223 225 220 225 228 232 237
242 248 213 203 209 222 237 236 230 225 223 217 211 214 216 216 215 208 208 215 223 225 224 217 217 223 223 225 232 234 238 243
228 216 180 184 211 237 249 250 237 220 222 217 214 215 213 203 202 204 202 215 221 222 219 217 218 225 222 222 223 230 237 244
206 189 181 183 221 243 249 236 244 209 211 213 222 218 218 214 211 209 213 212 221 220 216 216 217 216 218 220 221 232 238 245
160 161 165 182 237 258 229 204 197 199 208 217 222 225 230 230 233 227 222 220 216 218 216 213 213 213 219 224 226 232 242 242
164 174 184 195 230 253 233 213 205 203 207 215 220 223 211 223 222 226 219 215 217 215 211 209 213 219 225 230 234 237 243 248
173 187 184 192 224 249 225 224 220 212 216 217 211 203 215 222 227 217 212 208 206 206 209 210 217 227 223 227 230 242 251 258
187 189 193 206 232 236 218 215 211 201 200 199 199 204 210 205 204 201 197 196 197 202 206 209 205 209 218 228 239 248 259 268
199 187 196 207 234 250 231 218 207 205 207 207 206 205 204 199 194 189 185 183 181 183 186 194 197 201 210 222 242 260 274 283
189 183 186 203 235 243 233 217 210 209 207 206 207 202 197 192 186 183 179 181 180 183 179 178 176 183 205 250 287 306 311 309
183 188 187 201 225 247 233 217 212 209 204 200 196 190 185 186 182 178 177 174 169 164 166 171 181 200 232 281 295 296 293 287
200 204 195 196 211 226 234 216 210 203 192 195 194 184 185 184 175 172 168 166 170 173 177 181 190 211 239 262 276 277 281 282
205 222 207 205 194 214 220 205 193 187 191 183 176 175 176 177 172 173 172 174 175 175 182 196 215 252 284 289 288 289 288 289
215 209 221 203 193 203 204 195 187 188 186 181 176 175 183 185 180 173 170 169 165 161 183 283 285 283 283 287 289 287 284 290
217 220 217 215 200 197 196 197 184 187 188 188 182 189 184 175 172 168 169 174 204 255 275 278 282 284 281 284 284 285 289 292
223 226 213 201 195 195 200 200 200 188 192 185 187 181 174 173 178 178 208 248 255 263 274 283 299 296 298 292 289 290 292 294
Wind_Speed_850mb
42 42 38 36 39 40 42 53 59 56 62 66 63 72 71 69 66 67 62 68 64 70 66 58 50 51 51 43 43 44 47 37
49 40 40 43 43 37 38 30 58 69 72 72 73 78 77 68 71 67 71 69 63 59 72 65 49 59 63 51 45 46 44 40
55 53 53 52 46 40 45 45 36 69 76 73 72 73 69 69 67 70 66 70 69 58 73 73 65 61 57 50 51 46 52 52
55 56 52 47 41 37 39 38 41 53 68 66 62 57 57 63 69 64 66 71 71 61 58 76 70 68 64 57 56 54 53 54
61 51 45 46 31 32 44 44 47 53 61 65 68 69 69 69 63 61 67 71 72 64 56 61 70 64 60 56 52 52 56 55
45 39 30 29 29 42 45 35 38 50 57 68 61 68 68 61 67 68 74 80 71 59 57 54 59 60 56 55 57 51 51 50
35 37 41 30 40 39 28 23 22 27 50 58 64 74 70 71 64 74 73 71 70 61 53 52 54 53 52 50 48 49 48 49
30 32 28 22 33 24 24 26 28 39 49 56 68 62 63 55 76 80 78 75 68 64 56 56 56 54 50 46 46 52 49 47
25 23 21 29 35 26 25 32 46 52 58 64 61 52 54 62 64 61 68 71 67 59 55 51 52 50 46 43 42 42 42 42
22 19 26 36 37 27 27 32 35 43 50 48 46 61 56 56 57 53 55 55 59 58 54 52 49 41 32 30 29 31 30 31
29 28 35 34 33 23 28 31 33 35 38 42 46 53 54 48 48 47 49 50 48 49 47 42 36 30 28 27 28 25 25 27
33 29 36 35 32 24 27 34 37 43 46 49 52 51 48 45 46 47 47 45 43 40 39 36 31 27 21 14 14 17 18 22
32 33 41 36 30 26 31 37 43 48 50 50 51 52 51 50 45 44 43 41 40 39 35 30 23 17 12 11 13 17 20 22
30 35 43 31 31 34 31 41 46 47 48 49 46 42 41 44 45 44 44 41 38 35 30 24 19 13 7 8 13 21 27 35
31 30 44 44 37 38 33 43 45 48 45 47 46 45 45 46 46 45 43 40 37 33 28 21 16 14 13 16 23 29 37 41
39 33 37 49 47 43 37 37 44 45 45 43 47 47 46 45 46 47 45 38 30 24 18 14 11 9 13 22 31 40 43 48
45 41 36 47 53 54 47 51 51 51 49 52 54 51 53 51 46 39 34 28 22 17 8 12 22 26 30 34 39 44 48 45
40 43 50 46 55 57 59 65 54 48 49 49 49 50 44 38 33 30 29 23 15 16 23 23 22 24 23 24 37 40 40 42
49 51 53 60 64 62 63 61 55 53 55 52 44 43 43 42 37 29 18 17 18 16 15 16 20 25 31 35 38 43 47 48
Wind_Direction_850mb
242 232 228 229 230 225 221 230 231 232 230 228 220 208 213 219 212 218 212 226 227 212 217 215 224 225 222 231 236 216 227 234
254 240 227 237 239 203 204 219 229 220 222 223 218 213 214 214 211 214 211 223 227 221 218 212 220 221 221 233 239 219 230 225
246 244 242 230 222 225 233 225 221 221 224 228 221 219 219 214 209 212 211 218 226 224 219 214 216 220 224 227 229 225 228 229
244 244 234 224 225 240 240 224 229 226 217 222 216 217 224 216 218 216 208 214 226 224 225 217 217 223 225 220 225 228 232 237
242 248 213 203 209 222 237 236 230 225 223 217 211 214 216 216 215 208 208 215 223 225 224 217 217 223 223 225 232 234 238 243
228 216 180 184 211 237 249 250 237 220 222 217 214 215 213 203 202 204 202 215 221 222 219 217 218 225 222 222 223 230 237 244
206 189 181 183 221 243 249 236 244 209 211 213 222 218 218 214 211 209 213 212 221 220 216 216 217 216 218 220 221 232 238 245
160 161 165 182 237 258 229 204 197 199 208 217 222 225 230 230 233 227 222 220 216 218 216 213 213 213 219 224 226 232 242 242
164 174 184 195 230 253 233 213 205 203 207 215 220 223 211 223 222 226 219 215 217 215 211 209 213 219 225 230 234 237 243 248
173 187 184 192 224 249 225 224 220 212 216 217 211 203 215 222 227 217 212 208 206 206 209 210 217 227 223 227 230 242 251 258
187 189 193 206 232 236 218 215 211 201 200 199 199 204 210 205 204 201 197 196 197 202 206 209 205 209 218 228 239 248 259 268
199 187 196 207 234 250 231 218 207 205 207 207 206 205 204 199 194 189 185 183 181 183 186 194 197 201 210 222 242 260 274 283
189 183 186 203 235 243 233 217 210 209 207 206 207 202 197 192 186 183 179 181 180 183 179 178 176 183 205 250 287 306 311 309
183 188 187 201 225 247 233 217 212 209 204 200 196 190 185 186 182 178 177 174 169 164 166 171 181 200 232 281 295 296 293 287
200 204 195 196 211 226 234 216 210 203 192 195 194 184 185 184 175 172 168 166 170 173 177 181 190 211 239 262 276 277 281 282
205 222 207 205 194 214 220 205 193 187 191 183 176 175 176 177 172 173 172 174 175 175 182 196 215 252 284 289 288 289 288 289
215 209 221 203 193 203 204 195 187 188 186 181 176 175 183 185 180 173 170 169 165 161 183 283 285 283 283 287 289 287 284 290
217 220 217 215 200 197 196 197 184 187 188 188 182 189 184 175 172 168 169 174 204 255 275 278 282 284 281 284 284 285 289 292
223 226 213 201 195 195 200 200 200 188 192 185 187 181 174 173 178 178 208 248 255 263 274 283 299 296 298 292 289 290 292 294